EDT,Max TemperatureF,Mean TemperatureF,Min TemperatureF,Max Dew PointF,MeanDew PointF,Min DewpointF,Max Humidity, Mean Humidity, Min Humidity, Max Sea Level PressureIn, Mean Sea Level PressureIn, Min Sea Level PressureIn, Max VisibilityMiles, Mean VisibilityMiles, Min VisibilityMiles, Max Wind SpeedMPH, Mean Wind SpeedMPH, Max Gust SpeedMPH,PrecipitationIn, CloudCover, Events, WindDirDegrees
2011-10-1,68,58,50,56,45,38,90,62,37,29.97,29.84,29.74,10,10,10,17,11,24,0.00,0,,301
2011-10-2,64,54,44,47,42,37,100,69,38,30.07,29.99,29.95,10,10,10,15,7,23,0.00,1,,277
2011-10-3,70,56,43,50,43,37,100,70,33,30.17,30.10,30.06,10,10,10,14,3,21,0.00,0,,270
2011-10-4,72,60,48,52,47,45,97,70,39,30.22,30.18,30.15,10,10,8,14,5,21,0.00,1,,319
2011-10-5,75,60,46,57,52,47,100,77,43,30.26,30.21,30.17,10,10,9,10,2,18,0.00,0,,342
2011-10-6,78,64,51,58,53,50,97,72,39,30.35,30.29,30.23,10,10,5,13,5,,0.01,1,,40
2011-10-7,77,64,53,58,54,50,90,72,48,30.44,30.38,30.34,10,10,8,12,7,,0.00,0,,47
2011-10-8,77,65,53,59,55,52,96,74,48,30.47,30.42,30.38,10,10,9,16,6,20,0.00,0,,42
2011-10-9,78,69,60,63,61,57,90,77,60,30.39,30.33,30.28,10,10,10,17,12,23,0.00,2,,47
2011-10-10,72,68,64,68,64,59,93,88,81,30.25,30.15,30.06,10,10,10,13,10,21,0.03,3,Rain,45
2011-10-11,73,68,64,66,63,55,97,84,61,30.04,29.96,29.91,10,10,6,20,10,25,0.16,7,Rain,63
2011-10-12,84,76,71,75,71,67,100,89,72,29.90,29.84,29.78,10,10,1,13,7,16,0.13,6,Rain-Thunderstorm,118
2011-10-13,80,73,66,73,70,65,100,91,74,29.82,29.73,29.65,10,7,0,15,6,23,0.17,4,Fog-Rain-Thunderstorm,173
2011-10-14,77,68,60,66,57,46,100,75,36,29.89,29.71,29.61,10,10,10,16,8,24,0.03,2,,244
2011-10-15,79,66,53,53,50,41,97,66,28,30.03,29.95,29.89,10,10,10,14,7,20,0.00,0,,255
2011-10-16,75,62,48,52,47,40,96,63,29,30.17,30.08,30.04,10,10,10,9,3,,0.00,0,,215
2011-10-17,84,72,60,63,56,50,96,65,32,30.04,29.96,29.89,10,10,10,13,8,16,0.00,0,,227
2011-10-18,82,72,61,70,66,60,100,86,56,29.94,29.82,29.64,10,8,2,13,5,18,0.66,3,Rain,169
2011-10-19,81,70,57,74,70,49,100,90,72,29.61,29.46,29.35,10,9,2,23,10,30,0.43,6,Rain,167
2011-10-20,64,56,48,46,43,40,83,65,41,30.01,29.82,29.60,10,10,10,16,12,25,0.00,0,,237
2011-10-21,66,55,44,49,45,42,97,76,47,30.10,30.06,30.01,10,10,8,13,6,,0.00,0,,212
2011-10-22,70,56,42,53,48,41,97,78,49,30.13,30.09,30.06,10,9,5,8,2,,0.01,3,,360
2011-10-23,72,60,48,55,51,48,97,77,48,30.14,30.10,30.07,10,10,10,8,4,,0.00,0,,27
2011-10-24,72,61,50,54,50,45,97,75,41,30.11,30.07,30.01,10,9,5,13,6,16,0.00,2,,347
2011-10-25,72,60,48,50,46,38,96,70,31,30.26,30.19,30.11,10,10,9,15,5,22,0.01,0,,332
2011-10-26,75,60,45,56,49,44,97,74,36,30.20,30.08,29.98,10,9,4,10,3,,0.00,0,,219
2011-10-27,80,69,59,57,55,53,87,66,42,29.97,29.89,29.80,10,10,10,16,9,26,0.00,0,,235
2011-10-28,64,57,50,54,47,43,89,74,63,30.11,30.04,29.92,10,10,7,18,11,24,0.00,7,,24
2011-10-29,55,50,42,51,45,37,97,84,66,30.12,29.92,29.85,10,8,2,23,10,34,0.06,6,Rain,315
2011-10-30,59,46,35,37,34,29,96,67,33,30.38,30.28,30.14,10,10,10,14,7,22,0.00,0,,9
2011-10-31,62,50,39,55,45,34,97,82,69,30.37,30.22,30.11,10,10,3,17,7,21,0.27,6,Rain,15